www.pogodaiklimat.ru

Погода и климат >> Архив погоды >> Россия >> Северная Осетия >> Моздок


ПОГОДА в Моздоке

  • Прогноз погоды в Моздоке
  • Монитор погоды в Моздоке

АРХИВ ПОГОДЫ в Моздоке

Время (UTC), дата Ветер
(напр.,м/с)
 
Видим.   Явления Облачность Т
(С)
Тd
(С)
f
(%)
Тe
(С)
Тes
(С)
Комфортность P
(гПа)
Po
(гПа)
Тmin
(С)
Tmax
(С)
R
(мм)
R24
(мм)
S
(см)
03 12.08 штиль 0 20 км 6/3 600 м
[Sc Ac trans]
+15.9 +12.6 81 +16 +16 1018.2 1002.1 +15.3
06 12.08 СЗ 2 20 км ясно +23.9 +11.1 45 +25 +35 комфорт 1017.7 1002.0
09 12.08 СЗ 3
{10}
20 км 1/1 1000 м
[Cu med, cong]
+28.8 +4.7 22 +27 +40 жарко 1015.9 1000.5
12 12.08 СЗ 2 20 км 1/1 1000 м
[Cu med, cong]
+31.3 +3.8 18 +29 +38 жарко 1014.6 999.3
15 12.08 С 2 20 км 4/0
[Ac cast]
+30.9 +1.4 15 +28 +29 жарко 1014.5 999.2 +31.6
18 12.08 штиль 0 20 км 8/0
[Ac trans Ci sp]
+24.5 +8.1 35 +25 +25 комфорт 1016.3 1000.7
21 12.08 штиль 0 20 км 3/0
[Ci sp]
+20.4 +11.9 58 +22 +22 комфорт 1016.9 1001.0
00 13.08 штиль 0 20 км 4/0
[Ac trans]
+18.7 +12.1 65 +19 +19 1017.5 1001.5
03 13.08 штиль 0 20 км 3/0
[Ci sp]
+16.6 +12.0 74 +17 +17 1018.6 1002.5 +15.9
06 13.08 СВ 1 20 км ясно +24.3 +8.2 36 +25 +36 комфорт 1018.7 1003.0
09 13.08 ЮВ 2 20 км ясно +29.7 +6.8 24 +29 +45 жарко 1016.9 1001.5
12 13.08 Ю 1 20 км ясно +30.8 +5.9 21 +29 +41 жарко 1015.8 1000.5
15 13.08 СВ 2 20 км ясно +29.9 +5.7 22 +28 +29 жарко 1015.0 999.6 +31.5
18 13.08 штиль 0 20 км ясно +22.9 +6.6 35 +24 +24 комфорт 1017.2 1001.4
21 13.08 штиль 0 20 км ясно +17.4 +10.2 63 +17 +17 1016.8 1000.8
00 14.08 В 1 20 км ясно +16.8 +4.5 44 +18 +18 1016.8 1000.7
03 14.08 штиль 0 20 км ясно +16.3 +6.0 50 +16 +17 1017.4 1001.3 +13.9
06 14.08 В 3 20 км ясно +26.1 +4.2 24 +25 +33 комфорт 1016.7 1001.1
09 14.08 В 3 20 км ясно +30.1 +3.4 18 +28 +42 жарко 1014.8 999.4
12 14.08 ЮВ 4 20 км ясно +31.6 +1.2 14 +29 +35 жарко 1013.2 997.9
15 14.08 В 3 20 км ясно +29.8 +2.0 17 +27 +28 жарко 1012.8 997.5 +32.2
18 14.08 ЮВ 3 20 км ясно +23.5 +6.6 34 +24 +24 комфорт 1014.3 998.6
21 14.08 В 2 20 км ясно +19.1 +8.4 50 +20 +20 1013.9 998.0
00 15.08 В 1 20 км ясно +15.1 +9.6 70 +16 +16 1013.3 997.2
03 15.08 В 1 20 км ясно +13.8 +10.0 78 +14 +15 1013.1 996.9 +13.2
06 15.08 В 3 20 км ясно +23.5 +14.5 57 +26 +34 жарко 1012.5 996.9
09 15.08 В 3
{11}
20 км ясно +29.1 +15.8 45 +32 +46 душно 1011.1 995.8
12 15.08 В 4
{12}
20 км ясно +31.6 +12.6 31 +32 +39 жарко 1009.5 994.3
15 15.08 В 4
{11}
20 км ясно +28.5 +12.8 38 +30 +30 жарко 1009.2 993.9 +31.8
18 15.08 В 3 20 км ясно +23.1 +12.8 52 +26 +26 жарко 1010.1 994.5
21 15.08 В 3 20 км 10/10 600 м
[Sc]
+22.2 +18.5 80 +27 +27 душно 1009.4 993.8
00 16.08 В 1 20 км 10/10 600 м
[Sc]
+22.2 +19.2 83 +28 +28 душно 1008.8 993.2
03 16.08 штиль 0 20 км 10/10 600 м
[Sc]
+21.9 +19.7 87 +27 +27 душно 1009.1 993.5 +21.4
06 16.08 З 1 20 км 10/10 600 м
[Sc]
+22.4 +16.5 69 +27 +27 душно 1009.6 994.0 +20.4
09 16.08 СВ 1 20 км 8/8 1000 м
[Cu med, cong]
+27.1 +17.5 56 +31 +35 душно 1008.0 992.7
12 16.08 ЮВ 3 20 км ясно +31.7 +17.3 42 +35 +43 очень
душно
1005.1 990.0
15 16.08 В 2 20 км ясно +31.3 +17.3 43 +35 +36 очень
душно
1004.3 989.3 +32.4
18 16.08 В 3 20 км 8/6 600 м
[Sc Ac trans]
+26.4 +16.7 55 +30 +30 душно 1006.3 991.0
21 16.08 В 2 20 км 10/10 600 м
[Sc]
+23.3 +16.9 67 +28 +28 душно 1006.1 990.6
00 17.08 штиль 0 20 км 9/9 600 м
[Sc]
+22.4 +17.8 75 +27 +27 душно 1006.9 991.3
03 17.08 В 1 20 км 9/8 600 м
[Sc Ac trans]
+21.6 +18.2 81 +26 +26 душно 1006.4 990.8 +21.4
06 17.08 СВ 2 20 км 10/10 600 м
[Sc]
+21.9 +18.7 82 +27 +27 душно 1007.4 991.9
09 17.08 СЗ 3 20 км 8/0
[Ac trans Ci sp]
+28.6 +17.5 51 +33 +42 очень
душно
1008.4 993.1
12 17.08 С 2 20 км 8/0
[Ac trans Cs]
+31.5 +17.2 42 +35 +41 очень
душно
1007.5 992.4
15 17.08 С 3 20 км 10/10 600 м
[Sc]
+30.7 +16.9 44 +34 +34 очень
душно
1007.5 992.3 +32.2
18 17.08 ЮЗ 3 10 км гроза без осадков {ливн. осадки} 10/10 600 м
[Cb cap]
+23.1 +23.1 100 +32 +32 очень
душно
1010.3 994.8
21 17.08 СЗ 1 20 км {гроза} 9/9 600 м
[Sc]
+22.8 +22.8 100 +31 +31 очень
душно
1009.5 994.0
00 18.08 СВ 1 20 км {гроза} 10/10 600 м
[Sc]
+22.4 +22.4 100 +30 +30 очень
душно
1008.0 992.5
03 18.08 Ю 1 20 км 8/3 600 м
[Sc Ac trans Ci fib]
+21.9 +21.9 100 +29 +29 очень
душно
1008.4 992.8 +21.7 7
06 18.08 З 1 20 км 3/0
[Ac trans]
+26.4 +19.5 66 +32 +41 очень
душно
1007.9 992.5
09 18.08 СЗ 1 20 км 8/3 1000 м
[Cu med, cong Ac trans Ci fib]
+29.8 +17.6 48 +34 +43 очень
душно
1006.8 991.6
12 18.08 ЮЗ 2 20 км 8/3 1000 м
[Cu med, cong Ac trans Ci fib]
+31.7 +19.2 48 +37 +42 очень
душно
1006.4 991.4
15 18.08 З 2 20 км 6/0
[Ac trans Ci fib]
+30.7 +19.2 50 +36 +37 очень
душно
1007.0 991.9 +32.0
18 18.08 З 2 20 км 10/10 600 м
[Sc]
+27.3 +19.2 61 +33 +33 очень
душно
1009.0 993.7
21 18.08 З 2 20 км 9/9 600 м
[Sc]
+26.5 +18.6 62 +31 +31 душно 1009.8 994.4

 

Местоположение метеостанции Моздок (Северная Осетия, Россия): широта 43.73 долгота 44.67 высота над уровнем моря 136 м.

В архиве по умолчанию представлена погода в Моздоке за последнюю неделю. Архивные данные за месяц целиком и за предыдущие месяцы, начиная с января 2011 года, Вы можете получить, выбрав интересующий диапазон дат из раскрывающегося списка и нажав кнопку "Ввод!".


*Определитесь, кто Вы:
робот инопланетянин человек

Внимание! Время в таблицах - всемирное. Для получения местного времени необходимо прибавить поправку, которая равна 3 ч.

Смотрите также архив погоды в соседних городах и на ближайших метеорологических станциях:

Погода в Прохладный (Кабардино-Балкария, Россия) (50 км)
Погода в Наурской (Чечня, Россия) (53 км)
Погода в Рощино (Ставропольский край, Россия) (63 км)
Погода в Назрани (Ингушетия, Россия) (66 км)
Погода в Владикавказе (Северная Осетия, Россия) (78 км)
Погода в Алагире (Северная Осетия, Россия) (81 км)
Погода в Нальчике (Кабардино-Балкария, Россия) (87 км)
Погода в Грозном (Чечня, Россия) (100 км)
Погода в Зеленокумске (Ставропольский край, Россия) (100 км)
Погода в Терекли-Мектебе (Дагестан, Россия) (107 км)

Пояснения к столбцам:

Ветер - указаны скорость ветра в м/с - средняя за 10 мин, порывы в срок и между сроками (в фигурных скобках) и направление, откуда дует ветер: С - северный, СВ - северо-восточный, В - восточный, ЮВ - юго-восточный, Ю - южный, ЮЗ - юго-западный, З - западный, СЗ - северо-западный.
Видимость - горизонтальная дальность видимости в метрах или километрах. При видимости от 1 до 10 км при отсутствии осадков обычно наблюдается дымка, при ухудшении видимости до 1 км и менее - туман. В сухую погоду видимость может ухудшаться дымом, пылью или мглою.
Явления - указаны атмосферные явления, наблюдавшиеся в срок или в последний час перед сроком; фигурными скобками обозначены явления, наблюдавшиеся между сроками (за 1-3 часа до срока); квадратными скобками обозначены град или гололедные отложения с указанием их диаметра в мм.
Облачность - указаны через наклонную черту общая и нижняя облачность в баллах и высота нижней границы облаков в метрах; квадратными скобками обозначены формы облаков: Ci - перистые, Cs - перисто-слоистые, Cc - перисто-кучевые, Ac - высококучевые, As - высокослоистые, Sc - слоисто-кучевые, Ns - слоисто-дождевые, Cu - кучевые, Cb - кучево-дождевые. Подробнее классификацию облаков см. в Атласе облаков (PDF).
T - Температура воздуха - температура, измеренная на высоте 2 м над землей.
Td - Температура точки росы - температура, при понижении до которой содержащийся в воздухе водяной пар достигнет насыщения.
f - Относительная влажность воздуха - влажноcть воздуха, измеренная на высоте 2 м над землей.
Te - Эффективная температура - температура, которую ощущает одетый по сезону человек в тени. Характеристика душности погоды. При расчете учитывается влияние влажности воздуха и скорости ветра на теплоощущения человека.
Tes - Эффективная температура на солнце - температура, которую ощущает человек, с поправкой на солнечный нагрев. Характеристика знойности погоды. Зависит от высоты солнца над горизонтом, облачности и скорости ветра. Ночью, в пасмурную погоду, а также при ветре 12 м/с и более поправка равна нулю.
P - Атмосферное давление - приведенное к уровню моря атмосферное давление.
Po - Атмосферное давление - измеренное на уровне метеостанции атмосферное давление.
Tmin - Минимальная температура - минимум температуры воздуха на высоте 2 м над землей.
Tmax - Максимальная температура - максимум температуры воздуха на высоте 2 м над землей.
R - Количество осадков - Количество выпавших осадков за период времени, мм. При наведении курсора мыши на число - период времени, за который выпало указанное количество осадков.
R24 - Количество осадков - Количество выпавших осадков за 24 часа, мм.
S - Снежный покров - Высота снежного покрова, см. При наведении курсора мыши на число - состояние снежного покрова и степень покрытия местности в баллах.